"datetime","temp","dp","rain_mm","uv","solar","mb","wind_mph","gust_mph","windchill","rh"
"2015-12-29 00:00:00",10.6,9.7,0.0,0.0,0,1012.0,2,6,"",94
"2015-12-29 00:01:00",10.6,9.7,0.0,0.0,0,1012.0,2,3,"",94
"2015-12-29 00:02:00",10.6,9.7,0.0,0.0,0,1012.0,2,2,"",94
"2015-12-29 00:03:00",10.6,9.7,0.0,0.0,0,1012.0,1,2,"",94
"2015-12-29 00:04:00",10.6,9.7,0.0,0.0,0,1011.9,2,9,"",94
"2015-12-29 00:05:00",10.6,9.7,0.2,0.0,0,1011.8,3,3,"",94
"2015-12-29 00:06:00",10.6,9.7,0.2,0.0,0,1011.7,2,5,"",94
"2015-12-29 00:07:00",10.6,9.7,0.2,0.0,0,1011.7,1,2,"",94
"2015-12-29 00:08:00",10.6,9.7,0.2,0.0,0,1011.9,1,3,"",94
"2015-12-29 00:09:00",10.6,9.7,0.2,0.0,0,1012.0,2,2,"",94
"2015-12-29 00:10:00",10.6,9.7,0.2,0.0,0,1012.1,1,3,"",94
"2015-12-29 00:11:00",10.6,9.7,0.2,0.0,0,1012.1,2,5,"",94
"2015-12-29 00:12:00",10.6,9.7,0.2,0.0,0,1012.1,2,5,"",94
"2015-12-29 00:13:00",10.6,9.6,0.2,0.0,0,1012.1,2,3,"",94
"2015-12-29 00:14:00",10.6,9.6,0.2,0.0,0,1012.1,2,3,"",94
"2015-12-29 00:15:00",10.6,9.6,0.4,0.0,0,1012.2,2,9,"",94
"2015-12-29 00:16:00",10.6,9.6,0.4,0.0,0,1012.2,5,7,"",94
"2015-12-29 00:17:00",10.6,9.6,0.4,0.0,0,1012.1,1,2,"",94
"2015-12-29 00:18:00",10.6,9.6,0.4,0.0,0,1012.1,1,2,"",94
"2015-12-29 00:19:00",10.6,9.6,0.4,0.0,0,1012.1,2,3,"",94
"2015-12-29 00:20:00",10.6,9.6,0.4,0.0,0,1012.2,1,3,"",94
"2015-12-29 00:21:00",10.6,9.6,0.4,0.0,0,1012.2,2,8,"",94
"2015-12-29 00:22:00",10.6,9.8,0.4,0.0,0,1012.2,2,3,"",95
"2015-12-29 00:23:00",10.6,9.8,0.4,0.0,0,1012.2,2,5,"",95
"2015-12-29 00:24:00",10.6,9.8,0.4,0.0,0,1012.2,2,6,"",95
"2015-12-29 00:25:00",10.5,9.8,0.4,0.0,0,1012.2,5,9,"",95
"2015-12-29 00:26:00",10.5,9.8,0.4,0.0,0,1012.0,3,8,"",95
"2015-12-29 00:27:00",10.5,9.8,0.4,0.0,0,1012.0,5,6,"",95
"2015-12-29 00:28:00",10.5,9.8,0.4,0.0,0,1012.1,2,3,"",95
"2015-12-29 00:29:00",10.5,9.8,0.4,0.0,0,1012.0,2,3,"",95
"2015-12-29 00:30:00",10.5,9.7,0.4,0.0,0,1012.0,1,7,"",95
"2015-12-29 00:31:00",10.5,9.7,0.4,0.0,0,1012.0,3,5,"",95
"2015-12-29 00:32:00",10.5,9.7,0.4,0.0,0,1012.0,2,3,"",95
"2015-12-29 00:33:00",10.5,9.7,0.4,0.0,0,1012.0,2,7,"",95
"2015-12-29 00:34:00",10.5,9.7,0.4,0.0,0,1012.0,2,3,"",95
"2015-12-29 00:35:00",10.5,9.7,0.4,0.0,0,1012.0,1,3,"",95
"2015-12-29 00:36:00",10.5,9.7,0.4,0.0,0,1012.0,1,3,"",95
"2015-12-29 00:37:00",10.5,9.7,0.4,0.0,0,1012.0,2,7,"",95
"2015-12-29 00:38:00",10.5,9.7,0.4,0.0,0,1012.1,2,3,"",95
"2015-12-29 00:39:00",10.5,9.7,0.4,0.0,0,1012.0,2,3,"",95
"2015-12-29 00:40:00",10.5,9.7,0.4,0.0,0,1012.0,3,5,"",95
"2015-12-29 00:41:00",10.5,9.7,0.4,0.0,0,1011.9,3,5,"",95
"2015-12-29 00:42:00",10.5,9.7,0.4,0.0,0,1011.9,2,5,"",95
"2015-12-29 00:43:00",10.5,9.7,0.4,0.0,0,1011.9,3,9,"",95
"2015-12-29 00:44:00",10.5,9.7,0.4,0.0,0,1011.9,5,9,"",95
"2015-12-29 00:45:00",10.5,9.7,0.4,0.0,0,1011.9,1,3,"",95
"2015-12-29 00:46:00",10.5,9.7,0.4,0.0,0,1011.9,2,3,"",95
"2015-12-29 00:47:00",10.5,9.7,0.4,0.0,0,1011.9,2,3,"",95
"2015-12-29 00:48:00",10.5,9.7,0.4,0.0,0,1012.0,2,3,"",95
"2015-12-29 00:49:00",10.5,9.7,0.4,0.0,0,1012.1,2,6,"",95
"2015-12-29 00:50:00",10.5,9.7,0.4,0.0,0,1012.0,2,3,"",95
"2015-12-29 00:51:00",10.5,9.7,0.4,0.0,0,1012.0,1,3,"",95
"2015-12-29 00:52:00",10.5,9.7,0.6,0.0,0,1012.0,1,3,"",95
"2015-12-29 00:53:00",10.5,9.7,0.6,0.0,0,1012.0,3,8,"",95
"2015-12-29 00:54:00",10.5,9.7,0.6,0.0,0,1012.0,6,10,"",95
"2015-12-29 00:55:00",10.5,9.7,0.6,0.0,0,1012.1,5,5,"",95
"2015-12-29 00:56:00",10.5,9.9,0.6,0.0,0,1012.2,3,7,"",96
"2015-12-29 00:57:00",10.5,9.9,0.6,0.0,0,1012.1,3,6,"",96
"2015-12-29 00:58:00",10.5,9.9,0.6,0.0,0,1012.1,2,3,"",96
"2015-12-29 00:59:00",10.5,9.9,0.6,0.0,0,1012.1,2,3,"",96
"2015-12-29 01:00:00",10.5,9.9,0.6,0.0,0,1012.1,1,2,"",96
"2015-12-29 01:01:00",10.5,9.9,0.6,0.0,0,1012.1,1,3,"",96
"2015-12-29 01:02:00",10.5,9.9,0.6,0.0,0,1012.1,2,7,"",96
"2015-12-29 01:03:00",10.5,9.9,0.6,0.0,0,1012.1,3,6,"",96
"2015-12-29 01:04:00",10.5,9.9,0.6,0.0,0,1012.1,3,7,"",96
"2015-12-29 01:05:00",10.5,9.9,0.6,0.0,0,1012.0,3,6,"",96
"2015-12-29 01:06:00",10.5,9.9,0.6,0.0,0,1012.1,3,3,"",96
"2015-12-29 01:07:00",10.5,9.9,0.6,0.0,0,1012.1,3,3,"",96
"2015-12-29 01:08:00",10.5,9.9,0.6,0.0,0,1012.0,2,3,"",96
"2015-12-29 01:09:00",10.5,9.9,0.6,0.0,0,1011.9,3,8,"",96
"2015-12-29 01:10:00",10.5,9.9,0.6,0.0,0,1011.9,3,5,"",96
"2015-12-29 01:11:00",10.5,9.9,0.6,0.0,0,1011.8,3,6,"",96
"2015-12-29 01:12:00",10.5,9.9,0.6,0.0,0,1011.9,5,15,"",96
"2015-12-29 01:13:00",10.5,9.9,0.6,0.0,0,1011.9,6,6,"",96
"2015-12-29 01:14:00",10.5,9.9,0.6,0.0,0,1011.7,3,7,"",96
"2015-12-29 01:15:00",10.5,9.9,0.6,0.0,0,1011.7,2,2,"",96
"2015-12-29 01:16:00",10.5,9.9,0.6,0.0,0,1011.7,2,14,"",96
"2015-12-29 01:17:00",10.5,9.9,0.6,0.0,0,1011.6,7,12,"",96
"2015-12-29 01:18:00",10.5,9.9,0.6,0.0,0,1011.6,5,3,"",96
"2015-12-29 01:19:00",10.5,9.9,0.6,0.0,0,1011.6,2,6,"",96
"2015-12-29 01:20:00",10.5,9.9,0.6,0.0,0,1011.7,2,3,"",96
"2015-12-29 01:21:00",10.5,9.9,0.6,0.0,0,1011.7,2,3,"",96
"2015-12-29 01:22:00",10.5,9.9,0.6,0.0,0,1011.6,1,7,"",96
"2015-12-29 01:23:00",10.5,9.9,0.6,0.0,0,1011.6,3,7,"",96
"2015-12-29 01:24:00",10.5,9.9,0.6,0.0,0,1011.7,3,3,"",96
"2015-12-29 01:25:00",10.5,9.9,0.6,0.0,0,1011.7,2,7,"",96
"2015-12-29 01:26:00",10.5,9.9,0.6,0.0,0,1011.8,2,7,"",96
"2015-12-29 01:27:00",10.5,9.8,0.6,0.0,0,1011.8,3,3,"",95
"2015-12-29 01:28:00",10.4,9.8,0.6,0.0,0,1011.8,1,2,"",96
"2015-12-29 01:29:00",10.4,9.8,0.6,0.0,0,1011.8,2,6,"",96
"2015-12-29 01:30:00",10.4,9.8,0.6,0.0,0,1011.9,3,5,"",96
"2015-12-29 01:31:00",10.4,9.8,0.6,0.0,0,1011.9,2,8,"",96
"2015-12-29 01:32:00",10.4,9.8,0.6,0.0,0,1011.9,3,7,"",96
"2015-12-29 01:33:00",10.4,9.8,0.6,0.0,0,1011.9,2,3,"",96
"2015-12-29 01:34:00",10.4,9.8,0.6,0.0,0,1011.9,2,3,"",96
"2015-12-29 01:35:00",10.4,9.8,0.6,0.0,0,1011.9,1,3,"",96
"2015-12-29 01:36:00",10.4,9.8,0.6,0.0,0,1011.9,2,5,"",96
"2015-12-29 01:37:00",10.4,9.8,0.6,0.0,0,1012.0,3,7,"",96
"2015-12-29 01:38:00",10.4,9.8,0.6,0.0,0,1012.0,3,5,"",96
"2015-12-29 01:39:00",10.4,9.8,0.6,0.0,0,1012.0,3,8,"",96
"2015-12-29 01:40:00",10.4,9.8,0.6,0.0,0,1012.0,5,7,"",96
"2015-12-29 01:41:00",10.4,9.8,0.6,0.0,0,1012.0,3,6,"",96
"2015-12-29 01:42:00",10.4,9.8,0.6,0.0,0,1012.0,3,7,"",96
"2015-12-29 01:43:00",10.4,9.8,0.6,0.0,0,1012.0,3,5,"",96
"2015-12-29 01:44:00",10.4,9.8,0.6,0.0,0,1012.0,1,1,"",96
"2015-12-29 01:45:00",10.4,9.8,0.6,0.0,0,1011.9,0,1,"",96
"2015-12-29 01:46:00",10.4,9.8,0.6,0.0,0,1011.9,1,12,"",96
"2015-12-29 01:47:00",10.4,9.8,0.6,0.0,0,1011.9,5,8,"",96
"2015-12-29 01:48:00",10.4,9.8,0.6,0.0,0,1011.9,3,3,"",96
"2015-12-29 01:49:00",10.4,9.8,0.6,0.0,0,1011.9,2,3,"",96
"2015-12-29 01:50:00",10.4,9.8,0.6,0.0,0,1011.9,2,3,"",96
"2015-12-29 01:51:00",10.4,9.8,0.6,0.0,0,1011.9,1,3,"",96
"2015-12-29 01:52:00",10.4,9.8,0.6,0.0,0,1011.9,2,5,"",96
"2015-12-29 01:53:00",10.4,9.8,0.6,0.0,0,1011.9,1,2,"",96
"2015-12-29 01:54:00",10.4,9.8,0.6,0.0,0,1012.0,1,3,"",96
"2015-12-29 01:55:00",10.4,9.8,0.6,0.0,0,1012.0,2,3,"",96
"2015-12-29 01:56:00",10.4,9.8,0.6,0.0,0,1012.0,2,3,"",96
"2015-12-29 01:57:00",10.4,9.8,0.6,0.0,0,1012.0,1,2,"",96
"2015-12-29 01:58:00",10.4,9.8,0.6,0.0,0,1012.0,1,3,"",96
"2015-12-29 01:59:00",10.4,9.8,0.6,0.0,0,1012.1,3,8,"",96
"2015-12-29 02:00:00",10.4,9.8,0.6,0.0,0,1012.1,3,3,"",96
"2015-12-29 02:01:00",10.4,9.8,0.6,0.0,0,1012.1,5,15,"",96
"2015-12-29 02:02:00",10.4,9.8,0.6,0.0,0,1012.1,6,6,"",96
"2015-12-29 02:03:00",10.4,9.8,0.6,0.0,0,1012.2,3,3,"",96
"2015-12-29 02:04:00",10.4,9.8,0.6,0.0,0,1012.2,2,3,"",96
"2015-12-29 02:05:00",10.4,9.8,0.6,0.0,0,1012.2,3,9,"",96
"2015-12-29 02:06:00",10.4,9.8,0.6,0.0,0,1012.2,5,7,"",96
"2015-12-29 02:07:00",10.4,9.8,0.6,0.0,0,1012.2,2,3,"",96
"2015-12-29 02:08:00",10.4,9.8,0.6,0.0,0,1012.2,3,8,"",96
"2015-12-29 02:09:00",10.4,9.8,0.6,0.0,0,1012.2,5,6,"",96
"2015-12-29 02:10:00",10.4,9.8,0.6,0.0,0,1012.3,2,3,"",96
"2015-12-29 02:11:00",10.4,9.8,0.6,0.0,0,1012.2,2,3,"",96
"2015-12-29 02:12:00",10.4,9.8,0.6,0.0,0,1012.3,2,6,"",96
"2015-12-29 02:13:00",10.4,9.8,0.6,0.0,0,1012.3,3,7,"",96
"2015-12-29 02:14:00",10.4,9.8,0.6,0.0,0,1012.3,3,8,"",96
"2015-12-29 02:15:00",10.4,9.8,0.6,0.0,0,1012.3,5,8,"",96
"2015-12-29 02:16:00",10.4,9.8,0.6,0.0,0,1012.3,3,5,"",96
"2015-12-29 02:17:00",10.4,9.8,0.6,0.0,0,1012.4,3,6,"",96
"2015-12-29 02:18:00",10.4,9.8,0.6,0.0,0,1012.4,5,6,"",96
"2015-12-29 02:19:00",10.5,9.9,0.6,0.0,0,1012.4,3,7,"",96
"2015-12-29 02:20:00",10.5,9.9,0.6,0.0,0,1012.4,5,12,"",96
"2015-12-29 02:21:00",10.5,9.9,0.6,0.0,0,1012.5,7,12,"",96
"2015-12-29 02:22:00",10.5,9.9,0.6,0.0,0,1012.6,5,5,"",96
"2015-12-29 02:23:00",10.5,9.9,0.6,0.0,0,1012.5,2,5,"",96
"2015-12-29 02:24:00",10.5,9.9,0.6,0.0,0,1012.5,2,2,"",96
"2015-12-29 02:25:00",10.5,9.9,0.6,0.0,0,1012.5,2,6,"",96
"2015-12-29 02:26:00",10.5,9.9,0.6,0.0,0,1012.5,5,7,"",96
"2015-12-29 02:27:00",10.5,9.9,0.6,0.0,0,1012.5,6,9,"",96
"2015-12-29 02:28:00",10.5,9.9,0.6,0.0,0,1012.5,3,9,"",96
"2015-12-29 02:29:00",10.5,9.9,0.6,0.0,0,1012.5,3,5,"",96
"2015-12-29 02:30:00",10.5,9.9,0.6,0.0,0,1012.5,5,8,"",96
"2015-12-29 02:31:00",10.5,9.9,0.6,0.0,0,1012.5,5,6,"",96
"2015-12-29 02:32:00",10.5,9.9,0.6,0.0,0,1012.5,2,7,"",96
"2015-12-29 02:33:00",10.6,9.9,0.6,0.0,0,1012.6,3,7,"",95
"2015-12-29 02:34:00",10.5,9.9,0.6,0.0,0,1012.5,3,6,"",96
"2015-12-29 02:35:00",10.6,9.9,0.6,0.0,0,1012.6,2,6,"",95
"2015-12-29 02:36:00",10.5,9.9,0.6,0.0,0,1012.6,5,12,"",96
"2015-12-29 02:37:00",10.5,9.9,0.6,0.0,0,1012.5,6,15,"",96
"2015-12-29 02:38:00",10.5,9.9,0.6,0.0,0,1012.5,7,15,"",96
"2015-12-29 02:39:00",10.5,9.9,0.6,0.0,0,1012.5,3,7,"",96
"2015-12-29 02:40:00",10.5,9.9,0.6,0.0,0,1012.5,5,7,"",96
"2015-12-29 02:41:00",10.5,9.9,0.6,0.0,0,1012.5,6,14,"",96
"2015-12-29 02:42:00",10.5,9.9,0.6,0.0,0,1012.5,5,8,"",96
"2015-12-29 02:43:00",10.5,9.9,0.6,0.0,0,1012.6,5,10,"",96
"2015-12-29 02:44:00",10.5,9.9,0.6,0.0,0,1012.6,5,5,"",96
"2015-12-29 02:45:00",10.5,9.9,0.6,0.0,0,1012.6,2,3,"",96
"2015-12-29 02:46:00",10.5,9.9,0.6,0.0,0,1012.6,2,3,"",96
"2015-12-29 02:47:00",10.5,9.9,0.6,0.0,0,1012.7,3,10,"",96
"2015-12-29 02:48:00",10.5,9.9,0.6,0.0,0,1012.7,5,6,"",96
"2015-12-29 02:49:00",10.5,9.9,0.6,0.0,0,1012.7,3,7,"",96
"2015-12-29 02:50:00",10.5,9.9,0.6,0.0,0,1012.7,3,6,"",96
"2015-12-29 02:51:00",10.5,9.9,0.6,0.0,0,1012.7,2,5,"",96
"2015-12-29 02:52:00",10.5,9.9,0.6,0.0,0,1012.7,2,7,"",96
"2015-12-29 02:53:00",10.5,9.9,0.6,0.0,0,1012.7,2,3,"",96
"2015-12-29 02:54:00",10.5,9.9,0.6,0.0,0,1012.7,2,5,"",96
"2015-12-29 02:55:00",10.4,9.8,0.6,0.0,0,1012.7,3,5,"",96
"2015-12-29 02:56:00",10.4,9.8,0.6,0.0,0,1012.7,3,3,"",96
"2015-12-29 02:57:00",10.4,9.8,0.6,0.0,0,1012.7,3,5,"",96
"2015-12-29 02:58:00",10.4,9.8,0.6,0.0,0,1012.7,3,6,"",96
"2015-12-29 02:59:00",10.4,9.8,0.6,0.0,0,1012.8,3,6,"",96
"2015-12-29 03:00:00",10.4,9.8,0.6,0.0,0,1012.8,2,3,"",96
"2015-12-29 03:01:00",10.4,9.8,0.6,0.0,0,1012.8,2,3,"",96
"2015-12-29 03:02:00",10.4,9.8,0.6,0.0,0,1012.8,2,3,"",96
"2015-12-29 03:03:00",10.4,9.8,0.6,0.0,0,1012.8,2,2,"",96
"2015-12-29 03:04:00",10.4,9.8,0.6,0.0,0,1012.8,1,2,"",96
"2015-12-29 03:05:00",10.4,9.8,0.6,0.0,0,1012.8,1,3,"",96
"2015-12-29 03:06:00",10.4,9.8,0.6,0.0,0,1012.8,3,6,"",96
"2015-12-29 03:07:00",10.4,9.8,0.6,0.0,0,1012.8,3,5,"",96
"2015-12-29 03:08:00",10.4,9.8,0.6,0.0,0,1012.8,3,6,"",96
"2015-12-29 03:09:00",10.4,9.8,0.6,0.0,0,1012.8,3,6,"",96
"2015-12-29 03:10:00",10.4,9.8,0.6,0.0,0,1012.9,3,6,"",96
"2015-12-29 03:11:00",10.4,9.8,0.6,0.0,0,1012.9,2,10,"",96
"2015-12-29 03:12:00",10.4,9.8,0.6,0.0,0,1012.9,3,7,"",96
"2015-12-29 03:13:00",10.4,9.8,0.6,0.0,0,1012.9,3,6,"",96
"2015-12-29 03:14:00",10.4,9.8,0.6,0.0,0,1012.9,2,9,"",96
"2015-12-29 03:15:00",10.4,9.8,0.6,0.0,0,1012.9,3,6,"",96
"2015-12-29 03:16:00",10.4,9.8,0.6,0.0,0,1012.9,2,3,"",96
"2015-12-29 03:17:00",10.4,9.8,0.6,0.0,0,1012.9,2,3,"",96
"2015-12-29 03:18:00",10.4,9.8,0.6,0.0,0,1012.8,2,3,"",96
"2015-12-29 03:19:00",10.4,9.8,0.6,0.0,0,1012.9,2,3,"",96
"2015-12-29 03:20:00",10.4,9.8,0.6,0.0,0,1012.9,2,5,"",96
"2015-12-29 03:21:00",10.4,9.8,0.6,0.0,0,1013.0,3,7,"",96
"2015-12-29 03:22:00",10.4,9.8,0.6,0.0,0,1013.0,5,8,"",96
"2015-12-29 03:23:00",10.4,9.8,0.6,0.0,0,1013.0,3,3,"",96
"2015-12-29 03:24:00",10.4,9.8,0.6,0.0,0,1013.0,2,3,"",96
"2015-12-29 03:25:00",10.4,9.8,0.6,0.0,0,1013.1,3,8,"",96
"2015-12-29 03:26:00",10.4,9.8,0.6,0.0,0,1013.1,5,12,"",96
"2015-12-29 03:27:00",10.4,9.8,0.6,0.0,0,1013.0,3,3,"",96
"2015-12-29 03:28:00",10.4,9.8,0.6,0.0,0,1013.1,3,6,"",96
"2015-12-29 03:29:00",10.4,9.8,0.6,0.0,0,1013.0,3,5,"",96
"2015-12-29 03:30:00",10.4,9.8,0.6,0.0,0,1013.1,2,7,"",96
"2015-12-29 03:31:00",10.4,9.8,0.6,0.0,0,1013.1,3,6,"",96
"2015-12-29 03:32:00",10.4,9.8,0.6,0.0,0,1013.1,2,3,"",96
"2015-12-29 03:33:00",10.4,9.8,0.6,0.0,0,1013.1,2,3,"",96
"2015-12-29 03:34:00",10.4,9.8,0.6,0.0,0,1013.1,2,7,"",96
"2015-12-29 03:35:00",10.5,9.8,0.6,0.0,0,1013.1,3,5,"",95
"2015-12-29 03:36:00",10.5,9.8,0.6,0.0,0,1013.1,2,3,"",95
"2015-12-29 03:37:00",10.5,9.9,0.6,0.0,0,1013.1,2,7,"",96
"2015-12-29 03:38:00",10.5,9.9,0.6,0.0,0,1013.1,2,2,"",96
"2015-12-29 03:39:00",10.5,9.9,0.6,0.0,0,1013.1,2,7,"",96
"2015-12-29 03:40:00",10.5,9.9,0.6,0.0,0,1013.1,3,6,"",96
"2015-12-29 03:41:00",10.5,9.9,0.6,0.0,0,1013.1,1,5,"",96
"2015-12-29 03:42:00",10.5,9.9,0.6,0.0,0,1013.1,3,3,"",96
"2015-12-29 03:43:00",10.5,9.9,0.6,0.0,0,1013.2,2,3,"",96
"2015-12-29 03:44:00",10.5,9.9,0.6,0.0,0,1013.2,2,3,"",96
"2015-12-29 03:45:00",10.5,9.9,0.6,0.0,0,1013.2,1,5,"",96
"2015-12-29 03:46:00",10.5,9.9,0.8,0.0,0,1013.2,2,3,"",96
"2015-12-29 03:47:00",10.5,9.9,0.8,0.0,0,1013.2,2,2,"",96
"2015-12-29 03:48:00",10.5,9.9,0.8,0.0,0,1013.2,1,3,"",96
"2015-12-29 03:49:00",10.5,9.9,0.8,0.0,0,1013.2,3,8,"",96
"2015-12-29 03:50:00",10.5,9.9,0.8,0.0,0,1013.2,5,10,"",96
"2015-12-29 03:51:00",10.6,9.9,1.0,0.0,0,1013.3,6,10,"",95
"2015-12-29 03:52:00",10.6,9.9,1.0,0.0,0,1013.2,6,8,"",95
"2015-12-29 03:53:00",10.6,9.9,1.0,0.0,0,1013.2,5,6,"",95
"2015-12-29 03:54:00",10.6,9.9,1.0,0.0,0,1013.3,5,7,"",95
"2015-12-29 03:55:00",10.6,9.9,1.0,0.0,0,1013.4,5,12,"",95
"2015-12-29 03:56:00",10.6,9.9,1.0,0.0,0,1013.4,6,6,"",95
"2015-12-29 03:57:00",10.6,9.9,1.0,0.0,0,1013.4,3,5,"",95
"2015-12-29 03:58:00",10.6,9.9,1.0,0.0,0,1013.4,2,3,"",95
"2015-12-29 03:59:00",10.6,9.9,1.0,0.0,0,1013.4,2,5,"",95
"2015-12-29 04:00:00",10.6,9.9,1.0,0.0,0,1013.4,1,2,"",95
"2015-12-29 04:01:00",10.6,9.9,1.0,0.0,0,1013.4,1,8,"",95
"2015-12-29 04:02:00",10.6,9.9,1.0,0.0,0,1013.4,2,6,"",95
"2015-12-29 04:03:00",10.6,9.9,1.0,0.0,0,1013.5,2,3,"",95
"2015-12-29 04:04:00",10.6,9.9,1.0,0.0,0,1013.5,2,5,"",95
"2015-12-29 04:05:00",10.6,9.9,1.0,0.0,0,1013.4,3,6,"",95
"2015-12-29 04:06:00",10.6,9.9,1.0,0.0,0,1013.4,3,8,"",95
"2015-12-29 04:07:00",10.6,9.9,1.0,0.0,0,1013.4,2,3,"",95
"2015-12-29 04:08:00",10.6,9.9,1.0,0.0,0,1013.3,2,6,"",95
"2015-12-29 04:09:00",10.6,9.9,1.0,0.0,0,1013.4,3,10,"",95
"2015-12-29 04:10:00",10.6,9.9,1.0,0.0,0,1013.4,5,7,"",95
"2015-12-29 04:11:00",10.6,9.9,1.0,0.0,0,1013.4,3,5,"",95
"2015-12-29 04:12:00",10.5,9.9,1.0,0.0,0,1013.4,2,3,"",96
"2015-12-29 04:13:00",10.5,9.9,1.0,0.0,0,1013.4,2,5,"",96
"2015-12-29 04:14:00",10.5,9.9,1.0,0.0,0,1013.5,2,3,"",96
"2015-12-29 04:15:00",10.5,9.9,1.0,0.0,0,1013.5,1,2,"",96
"2015-12-29 04:16:00",10.5,9.9,1.0,0.0,0,1013.5,1,2,"",96
"2015-12-29 04:17:00",10.5,9.9,1.0,0.0,0,1013.5,1,3,"",96
"2015-12-29 04:18:00",10.5,9.9,1.0,0.0,0,1013.5,2,5,"",96
"2015-12-29 04:19:00",10.5,9.9,1.0,0.0,0,1013.6,2,3,"",96
"2015-12-29 04:20:00",10.5,9.9,1.0,0.0,0,1013.6,1,3,"",96
"2015-12-29 04:21:00",10.5,9.9,1.0,0.0,0,1013.6,2,3,"",96
"2015-12-29 04:22:00",10.5,9.9,1.0,0.0,0,1013.6,2,5,"",96
"2015-12-29 04:23:00",10.4,9.8,1.0,0.0,0,1013.6,2,5,"",96
"2015-12-29 04:24:00",10.4,9.8,1.0,0.0,0,1013.6,1,2,"",96
"2015-12-29 04:25:00",10.4,9.8,1.0,0.0,0,1013.6,1,3,"",96
"2015-12-29 04:26:00",10.4,9.8,1.0,0.0,0,1013.6,2,3,"",96
"2015-12-29 04:27:00",10.4,9.8,1.0,0.0,0,1013.6,2,6,"",96
"2015-12-29 04:28:00",10.4,9.8,1.0,0.0,0,1013.6,2,3,"",96
"2015-12-29 04:29:00",10.4,9.8,1.0,0.0,0,1013.7,2,5,"",96
"2015-12-29 04:30:00",10.4,9.8,1.0,0.0,0,1013.7,3,3,"",96
"2015-12-29 04:31:00",10.4,9.8,1.0,0.0,0,1013.7,2,3,"",96
"2015-12-29 04:32:00",10.4,9.8,1.0,0.0,0,1013.7,2,3,"",96
"2015-12-29 04:33:00",10.3,9.7,1.2,0.0,0,1013.7,2,3,"",96
"2015-12-29 04:34:00",10.3,9.6,1.2,0.0,0,1013.8,2,3,"",95
"2015-12-29 04:35:00",10.3,9.6,1.2,0.0,0,1013.8,3,9,"",95
"2015-12-29 04:36:00",10.3,9.5,1.2,0.0,0,1013.8,5,9,"",95
"2015-12-29 04:37:00",10.3,9.5,1.4,0.0,0,1013.8,3,5,"",95
"2015-12-29 04:38:00",10.3,9.5,1.4,0.0,0,1013.8,2,3,"",95
"2015-12-29 04:39:00",10.3,9.5,1.4,0.0,0,1013.9,2,6,"",95
"2015-12-29 04:40:00",10.2,9.5,1.6,0.0,0,1013.9,2,2,"",95
"2015-12-29 04:41:00",10.2,9.5,1.8,0.0,0,1013.9,1,2,"",95
"2015-12-29 04:42:00",10.2,9.4,1.8,0.0,0,1013.8,1,7,"",95
"2015-12-29 04:43:00",10.2,9.4,1.8,0.0,0,1013.9,2,3,"",95
"2015-12-29 04:44:00",10.2,9.4,2.0,0.0,0,1013.8,2,5,"",95
"2015-12-29 04:45:00",10.2,9.4,2.0,0.0,0,1013.9,2,6,"",95
"2015-12-29 04:46:00",10.2,9.4,2.0,0.0,0,1013.9,3,7,"",95
"2015-12-29 04:47:00",10.1,9.4,2.0,0.0,0,1013.9,3,6,"",95
"2015-12-29 04:48:00",10.1,9.3,2.0,0.0,0,1013.9,2,3,"",95
"2015-12-29 04:49:00",10.1,9.3,2.0,0.0,0,1013.9,1,3,"",95
"2015-12-29 04:50:00",10.1,9.3,2.0,0.0,0,1013.9,2,2,"",95
"2015-12-29 04:51:00",10.1,9.3,2.0,0.0,0,1013.9,1,7,"",95
"2015-12-29 04:52:00",10.1,9.3,2.0,0.0,0,1014.0,2,5,"",95
"2015-12-29 04:53:00",10.1,9.3,2.0,0.0,0,1014.0,2,3,"",95
"2015-12-29 04:54:00",10.1,9.3,2.0,0.0,0,1014.0,1,2,"",95
"2015-12-29 04:55:00",10.0,9.3,2.0,0.0,0,1014.0,2,5,"",95
"2015-12-29 04:56:00",10.0,9.2,2.0,0.0,0,1014.1,2,2,"",95
"2015-12-29 04:57:00",10.0,9.2,2.0,0.0,0,1014.1,1,3,"",95
"2015-12-29 04:58:00",10.0,9.2,2.0,0.0,0,1014.1,1,3,"",95
"2015-12-29 04:59:00",10.0,9.2,2.0,0.0,0,1014.1,1,5,"",95
"2015-12-29 05:00:00",10.0,9.2,2.0,0.0,0,1014.1,2,3,"",95
"2015-12-29 05:01:00",10.0,9.2,2.0,0.0,0,1014.2,1,3,"",95
"2015-12-29 05:02:00",9.9,9.2,2.0,0.0,0,1014.2,1,3,"",95
"2015-12-29 05:03:00",9.9,9.2,2.0,0.0,0,1014.2,1,2,"",95
"2015-12-29 05:04:00",9.9,9.2,2.0,0.0,0,1014.2,1,2,"",95
"2015-12-29 05:05:00",9.9,9.2,2.0,0.0,0,1014.2,1,3,"",95
"2015-12-29 05:06:00",9.9,9.2,2.0,0.0,0,1014.2,1,3,"",95
"2015-12-29 05:07:00",9.9,9.1,2.0,0.0,0,1014.2,2,5,"",95
"2015-12-29 05:08:00",9.9,9.1,2.0,0.0,0,1014.2,2,2,"",95
"2015-12-29 05:09:00",9.9,9.1,2.0,0.0,0,1014.2,1,5,"",95
"2015-12-29 05:10:00",9.9,9.1,2.0,0.0,0,1014.2,2,3,"",95
"2015-12-29 05:11:00",9.9,9.1,2.0,0.0,0,1014.2,2,3,"",95
"2015-12-29 05:12:00",9.8,9.1,2.0,0.0,0,1014.3,2,3,"",95
"2015-12-29 05:13:00",9.8,9.1,2.0,0.0,0,1014.3,1,2,"",95
"2015-12-29 05:14:00",9.8,9.1,2.0,0.0,0,1014.3,1,2,"",95
"2015-12-29 05:15:00",9.8,9.1,2.0,0.0,0,1014.3,1,2,"",95
"2015-12-29 05:16:00",9.8,9.1,2.0,0.0,0,1014.3,0,3,"",95
"2015-12-29 05:17:00",9.8,9.1,2.0,0.0,0,1014.4,2,3,"",95
"2015-12-29 05:18:00",9.8,9.0,2.0,0.0,0,1014.4,2,3,"",95
"2015-12-29 05:19:00",9.8,9.0,2.0,0.0,0,1014.4,2,5,"",95
"2015-12-29 05:20:00",9.8,9.0,2.0,0.0,0,1014.4,1,1,"",95
"2015-12-29 05:21:00",9.8,9.0,2.0,0.0,0,1014.4,0,1,"",95
"2015-12-29 05:22:00",9.8,9.0,2.0,0.0,0,1014.4,0,2,"",95
"2015-12-29 05:23:00",9.8,9.2,2.0,0.0,0,1014.4,1,2,"",96
"2015-12-29 05:24:00",9.8,9.2,2.0,0.0,0,1014.4,0,1,"",96
"2015-12-29 05:25:00",9.7,9.1,2.0,0.0,0,1014.5,1,3,"",96
"2015-12-29 05:26:00",9.7,9.1,2.0,0.0,0,1014.5,1,2,"",96
"2015-12-29 05:27:00",9.7,9.0,2.0,0.0,0,1014.5,1,1,"",95
"2015-12-29 05:28:00",9.7,9.0,2.0,0.0,0,1014.5,1,1,"",95
"2015-12-29 05:29:00",9.7,9.0,2.0,0.0,0,1014.5,0,1,"",95
"2015-12-29 05:30:00",9.7,9.0,2.0,0.0,0,1014.5,1,3,"",95
"2015-12-29 05:31:00",9.7,8.9,2.0,0.0,0,1014.5,1,1,"",95
"2015-12-29 05:32:00",9.7,8.9,2.0,0.0,0,1014.5,0,2,"",95
"2015-12-29 05:33:00",9.7,8.9,2.0,0.0,0,1014.5,1,2,"",95
"2015-12-29 05:34:00",9.7,8.9,2.0,0.0,0,1014.5,1,3,"",95
"2015-12-29 05:35:00",9.7,8.9,2.0,0.0,0,1014.5,1,2,"",95
"2015-12-29 05:36:00",9.7,8.9,2.0,0.0,0,1014.5,1,2,"",95
"2015-12-29 05:37:00",9.7,8.9,2.0,0.0,0,1014.5,1,2,"",95
"2015-12-29 05:38:00",9.6,8.9,2.0,0.0,0,1014.5,1,2,"",95
"2015-12-29 05:39:00",9.6,8.8,2.0,0.0,0,1014.5,1,3,"",95
"2015-12-29 05:40:00",9.6,8.8,2.0,0.0,0,1014.6,2,3,"",95
"2015-12-29 05:41:00",9.6,8.8,2.0,0.0,0,1014.5,1,1,"",95
"2015-12-29 05:42:00",9.6,8.8,2.0,0.0,0,1014.6,1,2,"",95
"2015-12-29 05:43:00",9.6,8.8,2.0,0.0,0,1014.6,1,2,"",95
"2015-12-29 05:44:00",9.6,8.8,2.0,0.0,0,1014.6,1,2,"",95
"2015-12-29 05:45:00",9.6,8.8,2.0,0.0,0,1014.6,1,2,"",95
"2015-12-29 05:46:00",9.6,8.8,2.0,0.0,0,1014.6,1,2,"",95
"2015-12-29 05:47:00",9.5,8.8,2.0,0.0,0,1014.6,1,2,"",95
"2015-12-29 05:48:00",9.5,8.8,2.0,0.0,0,1014.6,1,1,"",95
"2015-12-29 05:49:00",9.5,8.7,2.0,0.0,0,1014.6,1,1,"",95
"2015-12-29 05:50:00",9.5,8.7,2.0,0.0,0,1014.5,1,2,"",95
"2015-12-29 05:51:00",9.5,8.7,2.0,0.0,0,1014.6,1,2,"",95
"2015-12-29 05:52:00",9.5,8.7,2.0,0.0,0,1014.6,1,2,"",95
"2015-12-29 05:53:00",9.4,8.7,2.0,0.0,0,1014.6,1,2,"",95
"2015-12-29 05:54:00",9.4,8.7,2.0,0.0,0,1014.6,1,2,"",95
"2015-12-29 05:55:00",9.4,8.7,2.0,0.0,0,1014.6,1,1,"",95
"2015-12-29 05:56:00",9.4,8.7,2.0,0.0,0,1014.6,0,2,"",95
"2015-12-29 05:57:00",9.4,8.6,2.0,0.0,0,1014.6,1,2,"",95
"2015-12-29 05:58:00",9.4,8.6,2.0,0.0,0,1014.7,1,3,"",95
"2015-12-29 05:59:00",9.4,8.6,2.0,0.0,0,1014.7,1,2,"",95
"2015-12-29 06:00:00",9.3,8.6,2.0,0.0,0,1014.7,1,2,"",95
"2015-12-29 06:01:00",9.3,8.6,2.0,0.0,0,1014.7,1,1,"",95
"2015-12-29 06:02:00",9.3,8.6,2.0,0.0,0,1014.6,0,1,"",95
"2015-12-29 06:03:00",9.3,8.6,2.0,0.0,0,1014.7,1,2,"",95
"2015-12-29 06:04:00",9.3,8.5,2.0,0.0,0,1014.7,1,2,"",95
"2015-12-29 06:05:00",9.3,8.5,2.0,0.0,0,1014.7,1,2,"",95
"2015-12-29 06:06:00",9.3,8.5,2.0,0.0,0,1014.6,1,1,"",95
"2015-12-29 06:07:00",9.3,8.5,2.0,0.0,0,1014.7,0,1,"",95
"2015-12-29 06:08:00",9.3,8.5,2.0,0.0,0,1014.7,1,3,"",95
"2015-12-29 06:09:00",9.2,8.5,2.0,0.0,0,1014.6,1,2,"",95
"2015-12-29 06:10:00",9.2,8.5,2.0,0.0,0,1014.7,1,1,"",95
"2015-12-29 06:11:00",9.2,8.5,2.0,0.0,0,1014.7,1,1,"",95
"2015-12-29 06:12:00",9.2,8.4,2.0,0.0,0,1014.7,0,1,"",95
"2015-12-29 06:13:00",9.2,8.4,2.0,0.0,0,1014.7,1,2,"",95
"2015-12-29 06:14:00",9.2,8.4,2.0,0.0,0,1014.8,0,2,"",95
"2015-12-29 06:15:00",9.2,8.4,2.0,0.0,0,1014.8,1,2,"",95
"2015-12-29 06:16:00",9.2,8.4,2.0,0.0,0,1014.9,0,1,"",95
"2015-12-29 06:17:00",9.1,8.4,2.0,0.0,0,1014.9,0,1,"",95
"2015-12-29 06:18:00",9.1,8.4,2.0,0.0,0,1014.9,0,1,"",95
"2015-12-29 06:19:00",9.1,8.4,2.0,0.0,0,1014.9,0,3,"",95
"2015-12-29 06:20:00",9.1,8.3,2.0,0.0,0,1014.9,1,3,"",95
"2015-12-29 06:21:00",9.1,8.3,2.0,0.0,0,1014.9,0,2,"",95
"2015-12-29 06:22:00",9.1,8.3,2.0,0.0,0,1014.9,1,2,"",95
"2015-12-29 06:23:00",9.1,8.3,2.0,0.0,0,1014.9,1,2,"",95
"2015-12-29 06:24:00",9.1,8.3,2.0,0.0,0,1014.9,0,1,"",95
"2015-12-29 06:25:00",9.1,8.3,2.0,0.0,0,1014.9,0,2,"",95
"2015-12-29 06:26:00",9.0,8.3,2.0,0.0,0,1015.0,1,3,"",95
"2015-12-29 06:27:00",9.0,8.2,2.0,0.0,0,1015.0,1,1,"",95
"2015-12-29 06:28:00",9.0,8.2,2.0,0.0,0,1015.0,0,0,"",95
"2015-12-29 06:29:00",9.0,8.2,2.0,0.0,0,1015.0,0,0,"",95
"2015-12-29 06:30:00",9.0,8.2,2.0,0.0,0,1015.0,0,2,"",95
"2015-12-29 06:31:00",9.0,8.2,2.0,0.0,0,1015.0,1,2,"",95
"2015-12-29 06:32:00",9.0,8.2,2.0,0.0,0,1015.0,0,1,"",95
"2015-12-29 06:33:00",9.0,8.2,2.0,0.0,0,1015.0,0,0,"",95
"2015-12-29 06:34:00",9.0,8.2,2.0,0.0,0,1015.0,0,1,"",95
"2015-12-29 06:35:00",8.9,8.2,2.0,0.0,0,1015.1,0,1,"",95
"2015-12-29 06:36:00",8.9,8.2,2.0,0.0,0,1015.1,0,1,"",95
"2015-12-29 06:37:00",8.9,8.2,2.0,0.0,0,1015.2,0,1,"",95
"2015-12-29 06:38:00",8.9,8.2,2.0,0.0,0,1015.2,0,0,"",95
"2015-12-29 06:39:00",8.9,8.2,2.0,0.0,0,1015.2,0,0,"",95
"2015-12-29 06:40:00",8.9,8.2,2.0,0.0,0,1015.3,0,0,"",95
"2015-12-29 06:41:00",8.9,8.2,2.0,0.0,0,1015.3,0,0,"",95
"2015-12-29 06:42:00",8.9,8.2,2.0,0.0,0,1015.3,0,1,"",95
"2015-12-29 06:43:00",8.9,8.1,2.0,0.0,0,1015.4,0,1,"",95
"2015-12-29 06:44:00",8.9,8.3,2.0,0.0,0,1015.4,0,0,"",96
"2015-12-29 06:45:00",8.9,8.3,2.0,0.0,0,1015.5,0,0,"",96
"2015-12-29 06:46:00",8.9,8.3,2.0,0.0,0,1015.5,0,1,"",96
"2015-12-29 06:47:00",8.9,8.3,2.0,0.0,0,1015.5,0,1,"",96
"2015-12-29 06:48:00",8.9,8.3,2.0,0.0,0,1015.5,0,0,"",96
"2015-12-29 06:49:00",8.8,8.2,2.0,0.0,0,1015.4,0,0,"",96
"2015-12-29 06:50:00",8.8,8.2,2.0,0.0,0,1015.4,0,1,"",96
"2015-12-29 06:51:00",8.8,8.2,2.0,0.0,0,1015.4,0,2,"",96
"2015-12-29 06:52:00",8.8,8.2,2.0,0.0,0,1015.4,1,1,"",96